User: anonymous   Login
Location: Oshawa
(43.9000°N, 78.8670°W)
Time: 07:14:14
(UTC-05:00)
Language:

Cosmos 1408 Rocket - Orbit

View from above orbital plane
View from above orbital plane
View from above satellite
View from above satellite

Ground track
Ground track

The orbit data is extracted from the following two-line orbital elements,

1 13553U 82092B   14354.01739104  .00000788  00000-0  92007-4 0   985
2 13553 082.5681 001.8875 0022348 168.1193 248.7820 14.83720326742051
Epoch (UTC): 20 December 2014 00:25:02
Eccentricity: 0.0022348
inclination: 82.5681°
perigee height: 602 km
apogee height: 633 km
right ascension of ascending node: 1.8875°
argument of perigee: 168.1193°
revolutions per day: 14.83720326
mean anomaly at epoch: 248.7820°
orbit number at epoch: 74205

The dashed part of the orbit path shows where the satellite is in the earth's shadow,  

DLR